STARLINK-2370, 47910

Orbit data source: Space-Track

STARLINK-2370, 47910 is a payload satellite owned by SpaceX/Seattle (US) in LEO that was launched on Sun, 14 Mar 2021 UTC via an FALCON 9 launch vehicle from the Air Force Eastern Test Range (AFETR). Payload-class satellites include a variety of spacecraft equipped with specific instruments for various scientific and technological missions. These include communications satellites like Starlink; space stations such as the ISS; scientific satellites like the Hubble; Earth observation satellites from companies like Planet Labs, Umbra, and HawkEye 360; GPS; miniature CubeSats for education and research; and military/defense satellites.

Loading next visibility...
Identifier
47910, 2021-021BC
Orbit
LEO
Country
Flag of USUS
Related business
Manufacturer
SpaceX/Seattle
Mission
Operational Commercial Communications
Bus & Motor
STARLINK, Unknown motor
Mass
260 kg wet, ~248 kg dry
Launch date (UTC)
2021-03-14 (5 years ago)
Launch vehicle
FALCON 9
Launch site
Air Force Eastern Test Range (AFETR)
Object type
Payload
Rocket body
Debris
Shape & HBR
Box + 1 Pan, 10.1 m
Radar Cross Section
13.562 m², Large (>1 m²)

Expand to show TLE details & history
Last TLE update: 2 days ago

TLE from 2 days ago
0 STARLINK-2370
1 47910U 21021BC  26171.33779933  .00001005  00000-0  44139-4 0  9999
2 47910  53.1597 150.5842 0001225  86.8581 273.2560 15.31701396291984
Epoch: 2026-06-20T08:06Z
TLE epoch observation values (Epoch: 2026-06-20T08:06:25.862Z)
Latitude
-0.00005°
Longitude
120.42254°
Altitude
471.589 km
Speed
7.631 km/s
True Right ascension
10h 02m 20s
True Declination
0° 00' 00"
Sunlit
Object was in daylight at epoch
Visualization orbit readout
Latitude
Unknown
Longitude
Unknown
Altitude
Unknown
Speed
Unknown
Apparent Right ascension
Unknown
Apparent Declination
Unknown
Sunlit
N/A
Visualization observer readout
Local Sidereal Time
21:33:05
Azimuth
Unknown
Elevation
Unknown
Doppler factor
Unknown
Orbital elements
Apogee altitude
471.831 km
Perigee altitude
470.153 km
Semi-major axis
6,849.129 km
Eccentricity
0.00012
Inclination
53.1597°
RAAN
150.5842°
Arg. of periapsis
86.8581°
True anomaly
273.24199°
Mean anomaly
273.256°
Eccentric anomaly
273.24899°
Mean motion
3.82904 °/min
Orbital period
94.02 mins
BSTAR
0.000044139
Loading maneuver chart data...
Computing Atmospheric mass density...

Documentation

Showing up to 5 results
|